Change the Weather History Date:

Thursday, July 4, 2013

  Actual Average Record
Temperature  
Mean Temperature 72 °F -  
Max Temperature 84 °F 80 °F 100 °F (2012)
Min Temperature 60 °F 57 °F 43 °F (1967)
Cooling Degree Days 7    
Growing Degree Days 22 (Base 50)    
Moisture  
Dew Point 59 °F    
Average Humidity 66    
Maximum Humidity 94    
Minimum Humidity 37    
Precipitation  
Precipitation 0.00 in - - ()
Sea Level Pressure  
Sea Level Pressure 30.03 in    
Wind  
Wind Speed 2 mph (SSW)    
Max Wind Speed 9 mph    
Max Gust Speed -    
Visibility 8 miles    
Events      
Averages and records for this station are not official NWS values.
T = Trace of Precipitation, MM = Missing Value Source: NWS Daily Summary

Daily Weather History Graph

Daily Weather History Graph

Search for Another Location

Airport or City:

Trip Planner

Search our weather history database for the weather conditions in past years. The results will help you decide how hot, cold, wet, or windy it might be!

Date:

Astronomy

Jul. 04, 2013 Rise Set
Actual Time 5:17 AM CDT 8:43 PM CDT
Civil Twilight 4:41 AM CDT 9:19 PM CDT
Nautical Twilight 3:53 AM CDT 10:06 PM CDT
Astronomical Twilight 2:53 AM CDT 11:06 PM CDT
Moon 2:37 AM CDT (7/4) 5:44 PM CDT (7/4)
Length of Visible Light 16h 37m
Length of Day
15h 25m
Waning Crescent, 11% of the Moon is Illuminated
Jul 4
Waning Crescent
Jul 8
New
Jul 15
First Quarter
Jul 22
Full
Jul 29
Last Quarter

Hourly Weather History & Observations

Time (CDT) Temp. Heat Index Dew Point Humidity Pressure Visibility Wind Dir Wind Speed Gust Speed Precip Events Conditions
12:15 AM 63.0 °F - 60.4 °F 91% 30.05 in 4.0 mi Calm Calm - N/A   Clear
12:35 AM 63.3 °F - 61.0 °F 92% 30.05 in 4.0 mi Calm Calm - N/A   Clear
12:55 AM 63.3 °F - 61.0 °F 92% 30.05 in 5.0 mi Calm Calm - N/A   Clear
1:15 AM 62.2 °F - 59.9 °F 92% 30.04 in 4.0 mi Calm Calm - N/A   Scattered Clouds
1:35 AM 62.2 °F - 60.1 °F 93% 30.04 in 5.0 mi Calm Calm - N/A   Mostly Cloudy
1:55 AM 64.0 °F - 62.1 °F 93% 30.03 in 5.0 mi Calm Calm - N/A   Overcast
2:15 AM 64.0 °F - 62.1 °F 93% 30.04 in 5.0 mi Calm Calm - N/A   Overcast
2:35 AM 64.0 °F - 62.1 °F 93% 30.04 in 5.0 mi Calm Calm - N/A   Overcast
2:55 AM 64.0 °F - 62.1 °F 93% 30.04 in 5.0 mi Calm Calm - N/A   Overcast
3:15 AM 64.0 °F - 62.1 °F 93% 30.04 in 4.0 mi Calm Calm - N/A   Overcast
3:35 AM 64.4 °F - 62.2 °F 93% 30.03 in 5.0 mi WSW 3.5 mph - N/A   Overcast
3:55 AM 64.4 °F - 62.1 °F 92% 30.03 in 5.0 mi Calm Calm - N/A   Overcast
4:15 AM 64.0 °F - 61.7 °F 92% 30.03 in 5.0 mi Calm Calm - N/A   Overcast
4:35 AM 63.7 °F - 61.3 °F 92% 30.04 in 4.0 mi Calm Calm - N/A   Scattered Clouds
4:55 AM 62.6 °F - 60.3 °F 92% 30.04 in 3.0 mi Calm Calm - N/A   Clear
5:15 AM 62.2 °F - 60.1 °F 93% 30.05 in 4.0 mi Calm Calm - N/A   Clear
5:35 AM 60.8 °F - 59.0 °F 94% 30.06 in 1.8 mi Calm Calm - N/A   Mist
5:55 AM 61.7 °F - 59.7 °F 93% 30.06 in 2.5 mi Calm Calm - N/A   Mostly Cloudy
6:15 AM 62.1 °F - 60.1 °F 93% 30.06 in 2.5 mi Calm Calm - N/A   Scattered Clouds
6:35 AM 63.1 °F - 61.2 °F 93% 30.07 in 3.0 mi Calm Calm - N/A   Mostly Cloudy
6:55 AM 64.0 °F - 62.1 °F 93% 30.08 in 3.0 mi SE 3.5 mph - N/A   Overcast
7:15 AM 64.4 °F - 62.6 °F 94% 30.08 in 4.0 mi South 3.5 mph - N/A   Overcast
7:35 AM 65.3 °F - 63.0 °F 92% 30.08 in 5.0 mi SSW 4.6 mph - N/A   Overcast
7:55 AM 66.7 °F - 63.1 °F 88% 30.08 in 7.0 mi SSW 3.5 mph - N/A   Mostly Cloudy
8:15 AM 69.1 °F - 62.1 °F 78% 30.07 in 10.0 mi Calm Calm - N/A   Scattered Clouds
8:35 AM 71.1 °F - 61.9 °F 73% 30.06 in 10.0 mi South 3.5 mph - N/A   Clear
8:55 AM 72.5 °F - 61.3 °F 68% 30.07 in 10.0 mi South 4.6 mph - N/A   Clear
9:15 AM 74.5 °F - 61.2 °F 63% 30.06 in 10.0 mi South 3.5 mph - N/A   Clear
9:35 AM 75.2 °F - 60.6 °F 60% 30.06 in 10.0 mi WSW 3.5 mph - N/A   Clear
9:55 AM 76.3 °F - 61.5 °F 60% 30.06 in 10.0 mi SW 4.6 mph - N/A   Clear
10:15 AM 77.0 °F - 60.4 °F 56% 30.05 in 10.0 mi SSW 4.6 mph - N/A   Clear
10:35 AM 78.1 °F - 57.9 °F 50% 30.05 in 10.0 mi South 6.9 mph - N/A   Clear
10:55 AM 78.8 °F - 57.9 °F 49% 30.05 in 10.0 mi South 6.9 mph - N/A   Clear
11:15 AM 79.7 °F - 57.0 °F 46% 30.05 in 10.0 mi SSW 6.9 mph - N/A   Clear
11:35 AM 80.1 °F 80.3 °F 56.1 °F 44% 30.05 in 10.0 mi South 4.6 mph - N/A   Clear
11:55 AM 80.2 °F 80.5 °F 56.8 °F 45% 30.05 in 10.0 mi SW 8.1 mph - N/A   Clear
12:15 PM 81.5 °F 81.5 °F 57.6 °F 44% 30.05 in 10.0 mi SW 9.2 mph - N/A   Scattered Clouds
12:35 PM 81.9 °F 81.7 °F 57.6 °F 43% 30.04 in 10.0 mi SW 6.9 mph - N/A   Scattered Clouds
12:55 PM 82.4 °F 82.0 °F 57.2 °F 42% 30.04 in 10.0 mi SW 9.2 mph - N/A   Scattered Clouds
1:15 PM 82.8 °F 82.1 °F 56.5 °F 40% 30.03 in 10.0 mi South 4.6 mph - N/A   Scattered Clouds
1:35 PM 83.8 °F 83.0 °F 56.1 °F 39% 30.03 in 10.0 mi SW 8.1 mph - N/A   Scattered Clouds
1:55 PM 82.9 °F 82.1 °F 55.9 °F 39% 30.03 in 10.0 mi SSE 6.9 mph - N/A   Scattered Clouds
2:15 PM 81.7 °F 81.2 °F 55.4 °F 40% 30.03 in 10.0 mi SW 6.9 mph - N/A   Mostly Cloudy
2:35 PM 84.0 °F 83.2 °F 56.5 °F 39% 30.02 in 10.0 mi South 8.1 mph - N/A   Scattered Clouds
2:55 PM 83.5 °F 82.4 °F 54.9 °F 37% 30.02 in 10.0 mi South 8.1 mph - N/A   Scattered Clouds
3:15 PM 84.9 °F 83.9 °F 56.8 °F 38% 30.02 in 10.0 mi SW 5.8 mph - N/A   Mostly Cloudy
3:35 PM 84.6 °F 83.4 °F 55.4 °F 37% 30.01 in 10.0 mi South 9.2 mph - N/A   Scattered Clouds
3:55 PM 81.9 °F 81.4 °F 56.3 °F 41% 30.01 in 10.0 mi South 5.8 mph - N/A   Scattered Clouds
4:15 PM 81.5 °F 81.3 °F 56.1 °F 42% 30.02 in 10.0 mi South 5.8 mph - N/A   Mostly Cloudy
4:35 PM 81.3 °F 81.1 °F 56.3 °F 42% 30.02 in 10.0 mi SSW 8.1 mph - N/A   Overcast
4:55 PM 81.9 °F 81.7 °F 57.0 °F 43% 30.01 in 10.0 mi SSW 5.8 mph - N/A   Overcast
5:15 PM 81.5 °F 81.5 °F 57.4 °F 44% 30.01 in 10.0 mi South 5.8 mph - N/A   Mostly Cloudy
5:35 PM 80.4 °F 80.7 °F 57.2 °F 45% 30.01 in 10.0 mi SSW 8.1 mph - N/A   Mostly Cloudy
5:55 PM 81.7 °F 81.8 °F 58.5 °F 45% 30.01 in 10.0 mi South 9.2 mph - N/A   Mostly Cloudy
6:15 PM 78.8 °F - 56.7 °F 46% 30.01 in 10.0 mi South 9.2 mph - N/A   Mostly Cloudy
6:35 PM 78.4 °F - 56.7 °F 47% 30.01 in 10.0 mi SSW 4.6 mph - N/A   Overcast
6:55 PM 78.1 °F - 56.5 °F 47% 30.01 in 10.0 mi South 4.6 mph - N/A   Overcast
7:15 PM 79.5 °F - 58.8 °F 49% 30.01 in 10.0 mi South 4.6 mph - N/A   Overcast
7:35 PM 79.3 °F - 59.5 °F 51% 30.00 in 10.0 mi South 4.6 mph - N/A   Mostly Cloudy
7:55 PM 78.1 °F - 60.4 °F 54% 30.00 in 10.0 mi South 3.5 mph - N/A   Scattered Clouds
8:15 PM 76.3 °F - 59.9 °F 57% 30.00 in 10.0 mi South 3.5 mph - N/A   Clear
8:35 PM 74.5 °F - 59.7 °F 60% 30.00 in 10.0 mi SSE 3.5 mph - N/A   Clear
8:55 PM 72.5 °F - 59.5 °F 64% 30.00 in 10.0 mi SSE 4.6 mph - N/A   Clear
9:15 PM 71.1 °F - 59.4 °F 66% 30.00 in 10.0 mi South 3.5 mph - N/A   Clear
9:35 PM 69.3 °F - 59.2 °F 70% 30.01 in 10.0 mi South 4.6 mph - N/A   Clear
9:55 PM 68.7 °F - 59.2 °F 72% 30.01 in 10.0 mi Calm Calm - N/A   Clear
10:15 PM 68.0 °F - 58.8 °F 72% 30.02 in 10.0 mi Calm Calm - N/A   Clear
10:35 PM 68.0 °F - 58.8 °F 72% 30.02 in 10.0 mi Calm Calm - N/A   Clear
10:55 PM 68.4 °F - 58.6 °F 71% 30.02 in 10.0 mi Calm Calm - N/A   Clear
11:15 PM 66.2 °F - 58.5 °F 76% 30.02 in 10.0 mi Calm Calm - N/A   Clear
11:35 PM 65.5 °F - 59.2 °F 80% 30.02 in 10.0 mi Calm Calm - N/A   Clear
11:55 PM 64.8 °F - 59.4 °F 83% 30.02 in 10.0 mi Calm Calm - N/A   Clear